Location: Ab? ar R?sh Ba?r?
(24.1861°N, 32.8847°E)
Time: 11:22:55
(UTC+00:00)

H-II Stage 2 - Pass Details

Date: 24 October 2021
Orbit: 253 x 26143 km, 25.1° (Epoch: 02 December)

Event Time Altitude Azimuth Distance (km) Brightness Sun altitude
Rises 16:47:17 0° 275° (W) 2,245 7.4 -21.8°
Reaches altitude 10° 16:48:29 10° 276° (W) 1,659 6.4 -22.0°
Maximum altitude 16:51:39 83° 5° (N) 883 3.7 -22.8°
Enters shadow 16:54:29 39° 89° (E) 1,907 5.0 -23.4°
